Wind_Speed
7 11 13 14 13 14 12 13 16 19 19 17 18 19 19 17 17 18 17 15 13 14 13 10 10 10 9 11 9 10 9 11 11 10 8 8 9 9 3 24 24 20 21
6 7 7 9 12 12 13 13 17 18 17 17 20 23 22 21 20 19 18 15 14 14 16 11 12 11 14 13 10 11 11 10 11 12 11 12 12 11 11 15 20 19 21
2 6 7 8 13 12 11 13 15 17 17 16 20 21 23 17 19 18 17 17 14 17 16 14 15 13 12 12 10 12 13 13 14 15 15 16 13 13 15 17 19 20 22
7 10 10 12 12 14 13 13 13 16 19 19 19 20 22 20 19 17 17 17 17 18 15 14 14 11 11 9 12 12 13 13 15 15 16 17 18 18 18 19 20 22 21
8 7 10 14 14 17 15 15 14 15 17 21 23 25 27 28 25 21 18 18 20 18 16 16 14 13 11 9 10 12 13 15 16 18 20 20 20 22 23 25 24 24 24
12 10 11 13 14 16 17 17 17 17 17 18 22 26 26 30 28 26 23 22 21 20 17 16 16 14 11 10 10 11 13 14 16 17 19 20 21 23 24 25 27 27 28
13 14 17 18 17 18 18 19 20 19 21 18 21 20 23 25 26 27 26 24 23 20 17 17 15 13 11 10 8 9 11 12 11 11 11 14 16 20 21 23 27 30 32
15 17 18 20 23 21 21 23 22 23 24 21 20 19 15 23 26 24 25 24 23 21 19 19 18 16 13 12 10 9 8 7 11 13 15 17 18 20 23 25 27 30 33
20 22 23 22 26 27 28 28 28 28 27 26 23 23 26 23 22 25 23 21 22 21 21 21 18 17 16 14 12 11 11 13 16 18 21 23 24 25 27 26 28 31 28
25 25 26 29 28 29 37 35 33 32 29 28 26 27 25 25 27 26 23 22 22 21 23 20 19 18 17 16 15 16 17 19 23 27 29 30 28 27 30 27 25 24 23
29 29 28 27 26 24 28 30 36 35 35 32 28 33 30 28 28 27 26 24 21 23 23 21 19 19 18 18 18 18 20 24 28 31 33 33 28 27 30 27 24 19 18
32 33 33 33 33 28 29 28 28 29 35 39 43 21 25 21 21 22 24 24 25 26 25 22 20 19 18 17 16 18 22 25 28 31 30 23 23 25 25 23 21 16 18
36 39 40 39 39 38 35 31 29 25 28 28 29 30 13 20 20 19 24 27 30 27 26 24 22 21 19 18 19 20 22 24 27 26 23 20 20 19 18 17 15 13 14
32 32 35 42 43 44 41 38 33 26 24 23 18 26 20 4 17 35 33 33 33 29 27 25 24 22 21 21 20 21 23 24 26 22 21 18 18 17 15 13 12 11 12
34 33 33 34 33 36 40 40 36 29 27 23 18 17 17 10 9 30 34 35 34 32 31 29 26 24 20 21 22 24 25 24 25 22 18 17 17 15 13 12 10 10 11
39 37 34 35 36 33 35 33 30 26 27 27 26 20 14 10 9 17 34 35 38 38 35 31 26 23 21 22 24 26 26 23 23 21 18 17 16 13 12 11 9 8 9
42 42 40 37 35 36 34 34 28 23 23 25 26 26 18 14 13 26 34 42 43 38 31 28 27 24 22 26 27 25 24 24 22 20 17 16 15 14 11 11 9 7 7
39 39 39 38 36 36 36 34 30 23 22 24 25 24 22 19 20 24 30 44 45 37 31 30 29 27 30 30 27 24 23 25 21 19 16 15 15 13 12 11 9 9 9
41 39 37 37 35 35 34 32 31 25 23 24 26 26 24 24 27 28 27 34 40 41 37 34 31 35 28 27 22 22 24 23 19 18 16 14 13 12 10 9 9 9 9
36 33 32 31 30 31 30 30 27 26 24 24 26 26 27 26 31 30 27 27 31 37 40 36 36 32 29 26 23 23 23 21 18 16 14 13 9 6 4 5 7 7 10
30 28 29 29 28 26 25 27 25 26 26 24 23 23 27 27 27 31 31 30 29 31 39 41 36 34 34 29 26 23 21 21 19 15 11 10 7 4 4 4 6 9 12
29 28 28 28 27 26 25 24 24 26 29 27 24 25 28 25 28 31 29 29 30 33 33 31 34 35 34 27 23 19 19 18 16 12 12 11 8 6 6 9 12 14 16
26 25 25 26 26 26 27 25 24 26 31 31 26 29 26 22 19 25 29 30 30 30 30 32 35 35 29 25 22 18 19 16 13 14 14 12 9 9 12 15 18 20 23
26 26 24 24 25 25 25 25 23 25 32 31 25 27 29 23 21 23 27 30 28 27 29 32 31 27 25 24 18 16 18 15 15 16 14 12 11 13 16 19 22 24 25
26 24 23 21 21 21 22 23 23 23 30 27 31 30 29 24 17 21 24 25 24 25 27 27 25 24 23 21 18 17 15 13 16 16 15 13 13 17 21 24 25 28 27
23 20 19 19 18 19 18 19 23 26 29 32 34 32 27 24 18 17 22 24 24 23 20 21 22 22 22 18 16 17 15 15 16 14 13 15 19 22 25 27 27 25 19
Wind_Direction
206 191 197 211 228 234 231 233 227 223 229 234 232 221 216 218 220 224 228 231 226 237 234 239 246 240 253 260 257 252 268 259 257 270 276 276 270 285 258 210 241 243 241
229 250 218 202 232 232 232 231 231 229 229 226 225 218 216 225 229 221 227 236 232 233 237 235 248 252 242 248 261 263 265 266 267 277 282 287 273 268 244 227 238 249 255
245 241 253 256 235 231 235 241 239 236 234 227 220 215 216 220 218 218 223 227 229 234 239 242 246 250 245 247 258 263 269 276 278 284 286 286 278 269 260 260 258 256 254
238 243 246 245 240 236 237 239 243 240 235 227 220 218 218 212 217 221 225 232 226 234 238 240 254 249 242 240 260 272 280 286 284 283 281 283 283 280 270 260 257 261 265
255 245 252 252 251 242 242 242 241 239 237 231 227 222 219 223 223 226 232 235 232 228 236 238 240 242 246 250 256 267 273 282 288 288 290 289 285 279 279 277 273 268 268
265 253 256 257 254 251 247 244 246 247 244 243 236 231 235 232 229 233 236 237 233 230 233 236 236 237 239 246 255 269 279 286 287 287 287 288 285 285 283 284 282 278 272
276 266 256 252 254 256 256 254 250 249 252 256 249 242 241 238 237 236 237 238 232 232 230 234 234 238 240 247 255 277 295 304 311 312 307 297 295 292 291 287 281 280 280
286 282 281 269 265 253 251 259 258 253 253 254 252 248 248 239 237 237 235 233 232 230 226 226 225 232 233 240 257 280 296 324 329 328 325 316 309 299 296 298 293 285 279
284 284 286 286 278 272 258 251 252 253 254 256 255 255 253 255 250 236 233 227 224 224 223 219 225 230 233 244 258 272 287 304 313 316 314 310 310 311 304 306 301 296 292
283 281 279 281 281 284 270 274 253 251 247 246 247 244 248 250 245 228 229 229 223 222 218 222 228 230 238 251 263 273 284 297 309 313 312 307 301 305 308 312 311 304 301
277 276 277 278 284 284 276 276 275 292 245 232 214 226 226 235 239 237 221 222 218 216 219 222 230 237 241 249 261 275 283 294 306 313 312 307 299 307 311 316 317 313 310
273 273 272 273 276 275 280 286 288 298 311 289 285 341 223 243 244 235 230 219 216 216 219 224 228 234 241 252 267 276 284 297 307 314 314 303 302 307 309 313 316 312 307
278 272 270 272 275 277 276 280 286 298 313 332 340 307 273 237 253 246 234 229 219 219 220 223 229 235 244 254 266 281 294 305 314 314 310 310 310 305 303 309 307 294 315
289 285 281 274 275 278 278 281 285 291 297 307 333 335 331 271 255 226 219 228 223 224 223 229 234 240 248 257 270 285 297 309 313 311 308 313 316 310 311 324 305 307 308
286 283 282 283 280 279 280 282 284 285 284 287 300 315 325 344 310 231 227 219 220 229 230 232 237 244 257 272 281 291 299 307 312 307 304 313 313 316 328 337 334 316 297
288 284 279 280 281 279 279 282 280 278 272 270 273 276 268 279 278 220 218 226 231 227 225 229 233 245 257 264 280 293 297 304 308 303 304 310 309 316 332 338 341 332 314
286 285 284 283 280 279 277 277 276 268 266 261 254 254 247 250 239 228 226 226 228 228 232 231 234 243 262 272 276 287 297 301 301 298 302 306 308 313 324 331 344 346 327
285 283 279 279 282 278 276 275 271 261 254 250 245 240 232 225 229 235 221 222 227 229 233 237 241 247 269 274 270 280 294 294 295 291 295 297 296 303 313 321 339 350 349
284 283 280 275 276 276 272 272 266 258 245 240 236 232 229 225 222 233 232 223 226 236 236 231 240 256 263 258 273 285 286 286 286 282 283 285 292 302 316 332 343 357 355
283 281 275 274 274 272 266 262 259 252 239 235 231 230 225 222 225 232 236 237 238 226 225 241 249 251 253 262 277 280 276 279 276 272 275 279 285 303 342 357 350 353 352
281 277 273 272 270 267 261 260 256 245 236 230 225 223 219 220 228 235 239 236 233 228 228 241 242 241 251 262 271 261 264 271 264 262 268 262 260 263 277 304 317 322 329
282 277 272 269 264 260 261 264 255 240 229 226 216 214 221 225 227 230 234 234 235 233 232 235 237 245 253 258 247 248 260 253 245 247 241 242 249 266 287 303 307 311 314
290 283 273 265 262 260 257 262 257 239 226 222 219 212 216 219 226 232 237 237 237 241 238 236 238 245 246 243 244 249 251 241 229 231 233 240 256 286 300 304 306 308 309
299 283 277 265 260 263 258 256 258 239 225 221 213 213 216 226 236 231 231 232 235 238 238 239 239 235 234 237 239 238 233 221 221 224 232 250 276 299 296 302 305 306 308
300 286 275 265 256 252 250 254 242 241 223 220 216 215 224 225 235 233 231 229 231 233 232 229 224 223 233 234 229 225 219 215 218 225 236 262 292 294 302 305 305 304 303
295 286 277 262 257 255 257 256 246 240 233 230 219 218 222 226 226 219 223 223 222 226 226 223 222 227 226 216 215 208 214 220 216 226 255 286 291 292 303 306 302 302 301
Height
3156 3157 3156 3159 3161 3163 3163 3163 3164 3164 3165 3166 3167 3168 3170 3171 3173 3175 3177 3178 3181 3181 3182 3182 3181 3181 3180 3181 3181 3182 3181 3181 3182 3182 3182 3181 3180 3179 3177 3179 3181 3182 3182
3154 3156 3156 3156 3158 3160 3160 3161 3161 3160 3161 3162 3162 3164 3166 3169 3169 3172 3173 3174 3177 3178 3179 3179 3179 3179 3179 3179 3179 3179 3180 3179 3179 3179 3178 3178 3178 3176 3176 3178 3178 3178 3178
3153 3153 3153 3153 3155 3155 3155 3157 3157 3157 3157 3158 3158 3160 3163 3164 3166 3167 3169 3171 3173 3174 3175 3175 3175 3176 3176 3177 3176 3176 3176 3176 3176 3175 3174 3174 3174 3174 3174 3173 3172 3172 3171
3152 3152 3151 3153 3152 3152 3153 3153 3153 3153 3153 3153 3154 3155 3157 3159 3161 3163 3165 3167 3169 3170 3170 3171 3172 3173 3174 3173 3174 3174 3173 3172 3172 3172 3171 3170 3169 3169 3169 3168 3167 3166 3166
3150 3149 3149 3151 3148 3149 3148 3149 3149 3148 3149 3149 3149 3150 3152 3154 3156 3158 3161 3162 3165 3166 3167 3168 3169 3170 3171 3172 3172 3171 3170 3169 3168 3167 3166 3166 3166 3164 3162 3162 3161 3160 3160
3149 3149 3147 3147 3146 3146 3142 3145 3145 3143 3144 3144 3146 3147 3148 3150 3152 3154 3155 3157 3159 3162 3164 3165 3165 3166 3167 3168 3168 3168 3167 3166 3164 3163 3162 3160 3159 3157 3157 3156 3154 3152 3151
3146 3144 3144 3142 3142 3142 3142 3141 3140 3139 3139 3141 3141 3142 3142 3145 3147 3148 3149 3151 3154 3157 3159 3160 3162 3163 3164 3165 3165 3165 3164 3162 3160 3159 3158 3156 3155 3153 3152 3150 3147 3145 3143
3142 3140 3137 3134 3137 3136 3137 3138 3138 3137 3135 3137 3137 3138 3139 3140 3141 3142 3144 3146 3149 3152 3154 3155 3156 3159 3161 3162 3161 3161 3160 3159 3157 3156 3154 3152 3150 3147 3143 3142 3138 3135 3133
3137 3135 3133 3131 3131 3130 3129 3127 3129 3131 3133 3134 3134 3133 3134 3136 3135 3136 3138 3140 3142 3146 3147 3149 3152 3155 3156 3156 3157 3156 3156 3154 3153 3151 3148 3146 3143 3141 3136 3133 3128 3124 3122
3131 3129 3127 3123 3123 3120 3119 3119 3121 3124 3125 3127 3126 3122 3123 3124 3125 3124 3129 3131 3135 3140 3143 3146 3149 3150 3151 3152 3152 3151 3151 3150 3147 3145 3142 3139 3136 3133 3128 3124 3120 3116 3112
3123 3121 3120 3118 3117 3116 3114 3114 3105 3090 3108 3103 3098 3105 3105 3108 3113 3115 3118 3125 3129 3133 3137 3141 3143 3145 3146 3146 3147 3147 3146 3145 3142 3139 3135 3130 3127 3124 3119 3114 3111 3109 3106
3115 3113 3112 3110 3109 3111 3109 3108 3106 3103 3095 3090 3080 3090 3101 3110 3112 3113 3116 3118 3123 3126 3131 3134 3137 3140 3141 3141 3141 3141 3141 3139 3136 3132 3127 3123 3121 3117 3113 3109 3105 3104 3102
3106 3104 3102 3102 3100 3100 3102 3103 3102 3104 3095 3086 3085 3092 3101 3104 3111 3110 3114 3116 3118 3121 3125 3127 3130 3134 3135 3135 3135 3135 3134 3132 3129 3126 3123 3119 3117 3114 3111 3106 3103 3102 3099
3096 3094 3092 3092 3091 3088 3089 3090 3092 3094 3093 3092 3092 3088 3090 3097 3099 3097 3100 3108 3113 3116 3117 3121 3123 3126 3129 3129 3129 3129 3128 3125 3124 3120 3118 3115 3112 3110 3107 3102 3100 3097 3098
3087 3085 3083 3081 3080 3078 3076 3077 3080 3081 3087 3087 3086 3086 3083 3090 3091 3091 3099 3100 3105 3108 3110 3112 3116 3119 3121 3123 3122 3122 3121 3120 3118 3116 3114 3111 3109 3107 3103 3100 3097 3094 3095
3075 3074 3074 3071 3069 3069 3067 3067 3071 3072 3075 3077 3078 3081 3085 3084 3084 3086 3089 3095 3098 3097 3098 3103 3107 3111 3114 3114 3115 3116 3116 3113 3113 3112 3110 3107 3105 3103 3100 3097 3095 3093 3092
3065 3063 3062 3061 3059 3058 3059 3058 3062 3065 3066 3068 3072 3074 3076 3077 3077 3076 3080 3084 3087 3088 3093 3097 3101 3105 3107 3108 3108 3109 3109 3108 3107 3106 3105 3104 3101 3099 3098 3096 3094 3092 3091
3053 3051 3049 3049 3048 3048 3048 3048 3050 3056 3058 3058 3060 3063 3065 3068 3068 3067 3069 3074 3078 3082 3086 3090 3094 3097 3098 3099 3100 3101 3102 3103 3101 3101 3101 3100 3098 3097 3095 3094 3092 3091 3091
3041 3040 3039 3037 3037 3036 3037 3038 3039 3043 3047 3049 3050 3054 3056 3058 3060 3061 3063 3065 3069 3073 3078 3084 3088 3090 3091 3093 3094 3095 3096 3097 3096 3096 3096 3096 3095 3094 3093 3092 3091 3090 3089
3029 3029 3027 3027 3027 3026 3026 3028 3030 3032 3036 3038 3041 3044 3047 3049 3052 3054 3056 3057 3060 3063 3070 3076 3080 3082 3084 3086 3087 3088 3090 3091 3091 3091 3092 3092 3092 3091 3091 3090 3089 3089 3089
3018 3019 3018 3018 3018 3018 3018 3019 3022 3023 3026 3029 3033 3036 3040 3042 3044 3046 3048 3050 3054 3058 3064 3069 3072 3074 3076 3078 3081 3082 3084 3086 3086 3086 3088 3089 3089 3089 3088 3088 3088 3087 3086
3009 3009 3009 3009 3009 3010 3011 3011 3013 3015 3017 3020 3025 3029 3031 3034 3036 3039 3042 3045 3049 3053 3057 3060 3064 3066 3069 3071 3074 3076 3078 3080 3080 3082 3083 3085 3087 3087 3085 3084 3084 3083 3082
3001 3000 3000 3000 3000 3001 3002 3004 3004 3007 3010 3014 3019 3022 3026 3029 3031 3033 3036 3038 3041 3043 3048 3052 3056 3059 3063 3065 3067 3070 3072 3073 3075 3077 3080 3081 3082 3083 3081 3080 3079 3078 3076
2993 2992 2991 2992 2992 2992 2994 2995 2997 2999 3002 3007 3012 3016 3020 3023 3025 3027 3029 3031 3034 3038 3042 3045 3049 3053 3055 3059 3062 3064 3067 3067 3070 3073 3077 3078 3077 3077 3076 3074 3073 3071 3068
2985 2983 2982 2983 2984 2984 2985 2987 2989 2991 2994 3000 3005 3010 3013 3016 3018 3020 3022 3026 3029 3032 3035 3040 3044 3047 3050 3053 3057 3059 3061 3063 3066 3070 3072 3074 3072 3071 3071 3070 3068 3066 3063
2979 2977 2976 2976 2977 2978 2979 2981 2982 2984 2987 2991 2997 3003 3007 3011 3013 3014 3016 3020 3023 3027 3031 3036 3040 3043 3045 3049 3051 3053 3056 3060 3063 3066 3068 3068 3067 3066 3064 3063 3062 3059 3056